Regional Weather Roundup
Issued by NWS

Home | Current Version | Previous Version | Graphics & Text | Print | Product List | Glossary On
Versions: 1 2 3 4 5 6 7 8 9 10 11 12 13 14 15 16 17 18 19 20 21 22 23 24 25 26 27 28 29 30 31 32 33 34 35 36 37 38 39 40 41 42 43 44 45 46 47 48 49 50
000
ASUS43 KFSD 042210
RWRSD

WEATHER ROUNDUP FOR SOUTH DAKOTA
NATIONAL WEATHER SERVICE SIOUX FALLS SD
500 PM CDT MON MAY 04 2015

NOTE: "FAIR" INDICATES FEW OR NO CLOUDS BELOW 12,000 FEET WITH NO
SIGNIFICANT WEATHER AND/OR OBSTRUCTIONS TO VISIBILITY.


SDZ001>005-009-010-012>017-042300-
NORTHWEST AND NORTH CENTRAL SOUTH DAKOTA

CITY           SKY/WX    TMP DP  RH WIND       PRES   REMARKS
BUFFALO          N/A     55  32  41 SE25G33   30.06F
FAITH            N/A     48  40  73 E7        30.16F
MOBRIDGE       CLOUDY    65  23  20 S6        30.15F
$$

SDZ012>016-024>037-041>051-057-063-072>074-042300-
SOUTHWEST AND SOUTH CENTRAL SOUTH DAKOTA

CITY           SKY/WX    TMP DP  RH WIND       PRES   REMARKS
RAPID CTY ARPT CLOUDY    56  35  45 S13       30.14F
PIERRE         PTSUNNY   68  22  17 E13       30.15F
CUSTER         CLOUDY    44  31  60 E7        30.16F
ELLSWORTH AFB  CLOUDY    56  35  45 S15       30.13F
PHILIP         CLOUDY    64  27  24 E12G20    30.15F
PINE RIDGE     CLOUDY    56  35  45 SE6       30.14F
SPEARFISH      FAIR      59  37  44 SE21G30   30.08F
WINNER         MOCLDY    69  24  18 NE16      30.12F
$$

SDZ004>011-016>023-039-040-042300-
NORTHEAST SOUTH DAKOTA

CITY           SKY/WX    TMP DP  RH WIND       PRES   REMARKS
ABERDEEN       CLOUDY    69  23  17 NE6       30.16F
WATERTOWN      PTSUNNY   67  26  21 NE10      30.17S
BROOKINGS      PTSUNNY   70  27  19 E10       30.15S
SISSETON         N/A     70  19  14 NE5       30.16F
$$

SDZ017-020-022-023-036>040-048>070-042300-
SOUTHEAST SOUTH DAKOTA

CITY           SKY/WX    TMP DP  RH WIND       PRES   REMARKS
SIOUX FALLS    CLOUDY    70  29  21 E15       30.12F
HURON          CLOUDY    71  23  16 E7        30.13F
CHAMBERLAIN    PTSUNNY   70  22  16 E12       30.13F
MITCHELL       PTSUNNY   73  24  16 E10       30.12F
YANKTON        PTSUNNY   72  36  26 E13       30.09F
$$

ABBREVIATIONS USED IN REMARKS
   TC - TEMPERATURE IN CELSIUS
  WCI - WIND CHILL INDEX
   HX - HEAT INDEX
  VSB - VISIBILITY



USA.gov is the U.S. government's official web portal to all federal, state and local government web resources and services.